Austin Bergstrom, TX

4:03 AM CDT on April 29, 2017 (GMT -0500)
Austin Bergstrom International

Weather History for KAUS - October, 2012

Change the Weather History Date:

Sunday, October 21, 2012

  Actual Average Record
Temperature  
Mean Temperature 83 °F 68 °F  
Max Temperature 91 °F 81 °F 92 °F (1953)
Min Temperature 75 °F 54 °F 36 °F (1976)
Degree Days  
Heating Degree Days 0 2  
Month to date heating degree days 19 23  
Since 1 July heating degree days 19 25  
Cooling Degree Days 18 4  
Month to date cooling degree days 139 139  
Year to date cooling degree days 3017 2667  
Growing Degree Days 33 (Base 50)    
Moisture  
Dew Point 69 °F    
Average Humidity 67    
Maximum Humidity 87    
Minimum Humidity 47    
Precipitation  
Precipitation 0.00 in 0.16 in 1.23 in (1984)
Month to date precipitation 0.75 2.79  
Year to date precipitation 34.21 28.04  
Snow  
Snow 0.00 in - - ()
Month to date snowfall 0.0  
Since 1 July snowfall 0.0  
Since 1 September snowfall 0.0  
Snow Depth 0.00 in    
Sea Level Pressure  
Sea Level Pressure 29.87 in    
Wind  
Wind Speed 13 mph (South)    
Max Wind Speed 23 mph    
Max Gust Speed 35 mph    
Visibility 10 miles    
Events      
T = Trace of Precipitation, MM = Missing Value Source: NWS Daily Summary

Daily Weather History Graph

Daily Weather History Graph

Search for Another Location

Airport or City:

Trip Planner

Search our weather history database for the weather conditions in past years. The results will help you decide how hot, cold, wet, or windy it might be!

Date:

Astronomy

Oct. 21, 2012 Rise Set
Actual Time 7:37 AM CDT 6:52 PM CDT
Civil Twilight 7:12 AM CDT 7:17 PM CDT
Nautical Twilight 6:44 AM CDT 7:45 PM CDT
Astronomical Twilight 6:16 AM CDT 8:13 PM CDT
Moon 1:50 PM CDT (10/21) No Moon Set
Length of Visible Light 12h 04m
Length of Day
11h 15m
Waxing Crescent, 45% of the Moon is Illuminated
Oct 21
Waxing Crescent
Oct 21
First Quarter
Oct 29
Full
Nov 6
Last Quarter
Nov 13
New

Hourly Weather History & Observations

Time (CDT) Temp. Heat Index Dew Point Humidity Pressure Visibility Wind Dir Wind Speed Gust Speed Precip Events Conditions
12:53 AM 75.9 °F - 71.1 °F 85% 29.83 in 10.0 mi South 12.7 mph - N/A   Overcast
1:53 AM 77.0 °F - 71.1 °F 82% 29.83 in 10.0 mi South 12.7 mph - N/A   Overcast
2:53 AM 75.9 °F - 71.1 °F 85% 29.82 in 10.0 mi South 11.5 mph 19.6 mph N/A   Overcast
3:53 AM 75.9 °F - 71.1 °F 85% 29.83 in 10.0 mi South 11.5 mph - N/A   Overcast
4:53 AM 75.9 °F - 71.1 °F 85% 29.83 in 10.0 mi SSW 10.4 mph - N/A   Overcast
5:53 AM 75.0 °F - 71.1 °F 87% 29.85 in 9.0 mi South 9.2 mph - N/A   Mostly Cloudy
6:53 AM 75.0 °F - 71.1 °F 87% 29.86 in 9.0 mi South 10.4 mph - N/A   Mostly Cloudy
7:53 AM 75.0 °F - 71.1 °F 87% 29.87 in 7.0 mi South 11.5 mph - N/A   Mostly Cloudy
8:09 AM 75.2 °F - 71.6 °F 89% 29.90 in 7.0 mi South 10.4 mph - N/A   Scattered Clouds
8:53 AM 77.0 °F - 71.1 °F 82% 29.89 in 9.0 mi South 16.1 mph 23.0 mph N/A   Mostly Cloudy
9:28 AM 77.0 °F - 69.8 °F 78% 29.93 in 10.0 mi South 16.1 mph 25.3 mph N/A   Mostly Cloudy
9:53 AM 79.0 °F - 70.0 °F 74% 29.91 in 10.0 mi South 19.6 mph - N/A   Mostly Cloudy
10:39 AM 80.6 °F 83.9 °F 69.8 °F 70% 29.94 in 10.0 mi South 19.6 mph 28.8 mph N/A   Scattered Clouds
10:53 AM 82.9 °F 86.5 °F 69.1 °F 63% 29.91 in 10.0 mi South 17.3 mph 27.6 mph N/A   Scattered Clouds
11:53 AM 82.9 °F 86.5 °F 69.1 °F 63% 29.90 in 10.0 mi SSW 15.0 mph 24.2 mph N/A   Scattered Clouds
12:53 PM 87.1 °F 90.6 °F 68.0 °F 53% 29.88 in 10.0 mi South 18.4 mph 24.2 mph N/A   Scattered Clouds
1:53 PM 89.1 °F 92.1 °F 66.9 °F 48% 29.85 in 10.0 mi South 13.8 mph 21.9 mph N/A   Partly Cloudy
2:53 PM 90.0 °F 92.4 °F 66.0 °F 45% 29.82 in 10.0 mi South 17.3 mph 27.6 mph N/A   Partly Cloudy
3:53 PM 90.0 °F 92.8 °F 66.9 °F 46% 29.81 in 10.0 mi South 13.8 mph 21.9 mph N/A   Scattered Clouds
4:53 PM 90.0 °F 92.8 °F 66.9 °F 46% 29.81 in 10.0 mi South 15.0 mph - N/A   Scattered Clouds
5:53 PM 87.1 °F 89.2 °F 66.0 °F 49% 29.82 in 10.0 mi SSE 16.1 mph 24.2 mph N/A   Partly Cloudy
6:53 PM 82.9 °F 85.0 °F 66.0 °F 56% 29.84 in 10.0 mi South 9.2 mph - N/A   Partly Cloudy
7:53 PM 81.0 °F 83.8 °F 68.0 °F 65% 29.87 in 10.0 mi SSE 13.8 mph - N/A   Partly Cloudy
8:53 PM 78.1 °F - 68.0 °F 71% 29.89 in 10.0 mi SSE 12.7 mph - N/A   Clear
9:53 PM 75.9 °F - 68.0 °F 76% 29.91 in 10.0 mi SSE 8.1 mph - N/A   Partly Cloudy
10:53 PM 75.0 °F - 71.1 °F 87% 29.91 in 10.0 mi SSE 12.7 mph - N/A   Scattered Clouds
11:12 PM 75.2 °F - 71.6 °F 89% 29.94 in 10.0 mi SSE 10.4 mph - N/A   Mostly Cloudy
11:53 PM 75.9 °F - 71.1 °F 85% 29.91 in 10.0 mi SSE 13.8 mph - N/A   Overcast